#datint,netname,site,siteID,timestamp,IntT,BattV,AirT2,AirT,AirT_Avg,AirT_Max,AirT_Min,RH_Avg,RH_Max,RH_Min,EA_Avg,Td_Avg,Td_Max,Td_Min,WindS_Smp,WindS_Avg,WindD_Avg,WindD_SD,WindS_Max,ETo,ETr,SoilT4,SoilT8,SoilVWC8,SolarW_Avg,wetstate_Avg,wetT_Avg,Precip_accum,Precip_WPG,Precip_TB
15min,AgWx,beryljct,423,21DEC2020:00:00:00,21.3,12.76,17.4,17.1,18.1,19.3,16.6,66,69,64,0.221,8.7,9.3,7.9,0,1.3,10,24,2.7,-0.00009,-0.00012,30.1,33.0,8,0,0,.,6.03,0.00,0.00
15min,AgWx,beryljct,423,21DEC2020:00:15:00,20.9,12.75,18.6,18.3,17.6,18.3,17.0,66,69,64,0.226,8.3,8.7,7.6,1.973,0.9,20,27,2.2,-0.00011,-0.00015,30.0,33.0,9,0,0,.,6.03,0.00,0.00
15min,AgWx,beryljct,423,21DEC2020:00:30:00,20.5,12.75,17.2,16.7,17.4,18.3,16.4,65,66,64,0.214,7.7,8.8,6.9,2.324,1.7,344,19,2.9,-0.00007,-0.00008,29.8,33.0,9,0,0,.,6.03,0.00,0.00
15min,AgWx,beryljct,423,21DEC2020:00:45:00,20.1,12.73,17.4,16.7,16.7,17.4,16.1,67,69,64,0.206,7.5,8.4,6.6,2.389,1.4,345,34,2.8,-0.00008,-0.00010,29.6,33.0,8,0,0,.,6.03,0.00,0.00
15min,AgWx,beryljct,423,21DEC2020:01:00:00,19.7,12.73,17.6,17.4,17.2,17.7,16.5,64,66,62,0.216,7.0,7.7,6.5,1.491,0.9,215,47,2.5,-0.00011,-0.00015,29.5,33.0,8,0,0,.,6.03,0.00,0.00
15min,AgWx,beryljct,423,21DEC2020:01:15:00,19.4,12.72,16.9,16.3,16.0,17.5,15.0,68,70,65,0.221,7.3,8.2,6.4,1.798,1.6,178,10,2.5,-0.00007,-0.00009,29.3,33.0,8,0,0,.,6.04,0.00,0.00
15min,AgWx,beryljct,423,21DEC2020:01:30:00,19.0,12.71,19.4,18.5,16.4,18.5,15.4,68,71,65,0.236,7.7,9.6,6.3,0.702,0.9,179,27,1.8,-0.00010,-0.00014,29.2,32.9,8,0,0,.,6.03,0.00,0.00
15min,AgWx,beryljct,423,21DEC2020:01:45:00,18.9,12.71,18.7,20.0,19.3,20.7,17.7,67,71,64,0.240,10.0,11.4,8.9,0,0.7,224,14,2.3,-0.00013,-0.00018,29.0,32.9,8,0,0,.,6.03,0.00,0.00
15min,AgWx,beryljct,423,21DEC2020:02:00:00,18.9,12.68,18.2,17.4,19.6,20.5,17.1,66,69,64,0.230,10.1,10.9,8.3,3.858,2.3,151,19,5.8,-0.00005,-0.00006,28.8,32.9,8,0,0,.,6.03,0.00,0.00
15min,AgWx,beryljct,423,21DEC2020:02:15:00,18.9,12.69,17.3,16.7,16.7,17.8,15.7,68,70,66,0.224,8.0,9.4,6.7,2.806,3.4,170,7.6,4.5,-0.00002,-0.00001,28.7,32.9,9,0,0,.,6.03,0.00,0.00
15min,AgWx,beryljct,423,21DEC2020:02:30:00,18.7,12.67,16.3,17.2,17.1,17.6,16.7,68,70,67,0.225,8.5,9.1,8.0,0,1.0,170,5.3,3.7,-0.00010,-0.00013,28.5,32.8,8,0,0,.,6.03,0.00,0.00
15min,AgWx,beryljct,423,21DEC2020:02:45:00,18.5,12.67,17.0,16.7,16.4,17.0,15.7,70,73,68,0.224,8.4,8.9,7.5,1.798,1.4,170,28,2.1,-0.00009,-0.00011,28.4,32.8,8,0,0,.,6.04,0.00,0.00
15min,AgWx,beryljct,423,21DEC2020:03:00:00,18.2,12.66,17.3,19.0,16.2,19.0,14.5,71,75,67,0.260,8.5,11.9,7.1,1.688,2.7,179,21,3.6,-0.00004,-0.00004,28.2,32.8,8,0,0,.,6.04,0.00,0.00
15min,AgWx,beryljct,423,21DEC2020:03:15:00,18.0,12.65,17.9,17.2,17.3,18.7,16.3,70,72,68,0.226,9.1,11.3,8.1,0,0.9,166,12,1.7,-0.00011,-0.00015,28.1,32.7,8,0,0,.,6.03,0.00,0.00
15min,AgWx,beryljct,423,21DEC2020:03:30:00,17.7,12.64,15.9,14.5,14.1,17.2,12.5,73,75,68,0.218,7.0,8.8,5.8,2.609,2.4,316,16,3.6,-0.00005,-0.00005,28.0,32.7,9,0,0,.,6.04,0.00,0.00
15min,AgWx,beryljct,423,21DEC2020:03:45:00,17.2,12.64,15.6,14.6,15.4,16.0,14.5,72,74,70,0.215,7.9,8.7,7.1,0.789,1.2,294,41,2.5,-0.00009,-0.00012,27.9,32.6,8,0,0,.,6.04,0.00,0.00
15min,AgWx,beryljct,423,21DEC2020:04:00:00,16.8,12.62,14.7,14.7,15.2,15.9,14.5,73,75,72,0.217,8.2,9.1,7.6,3.179,0.8,136,22,3.2,-0.00011,-0.00015,27.7,32.6,8,0,0,.,6.04,0.00,0.00
15min,AgWx,beryljct,423,21DEC2020:04:15:00,16.6,12.61,14.5,14.2,14.8,15.3,14.2,73,74,71,0.210,7.6,8.3,6.8,2.346,2.4,190,3.2,3.2,-0.00005,-0.00006,27.6,32.5,9,0,0,.,6.04,0.00,0.00
15min,AgWx,beryljct,423,21DEC2020:04:30:00,16.4,12.6,14.8,13.4,13.8,14.5,13.1,75,78,73,0.218,7.3,7.9,6.7,1.71,1.8,155,66,3.5,-0.00007,-0.00008,27.5,32.5,8,0,0,.,6.04,0.00,0.00
15min,AgWx,beryljct,423,21DEC2020:04:45:00,16.0,12.59,14.9,13.8,13.5,14.4,12.6,78,81,75,0.228,7.8,8.9,7.0,3.025,0.9,328,56,3.2,-0.00010,-0.00014,27.3,32.4,8,0,0,.,6.04,0.00,0.00
15min,AgWx,beryljct,423,21DEC2020:05:00:00,16.1,12.58,16.9,18.3,17.8,20.0,13.9,76,81,71,0.260,11.4,13.0,9.0,3.968,2.4,280,22,4.0,-0.00006,-0.00007,27.2,32.4,8,0,0,.,6.04,0.00,0.00
15min,AgWx,beryljct,423,21DEC2020:05:15:00,16.2,12.55,13.7,13.6,14.4,18.1,13.2,75,76,72,0.212,7.8,11.5,6.7,0.702,2.7,325,5.9,5.3,-0.00004,-0.00005,27.1,32.3,8,0,0,.,6.04,0.00,0.00
15min,AgWx,beryljct,423,21DEC2020:05:30:00,15.9,12.55,12.7,12.6,13.2,14.6,12.4,77,80,75,0.215,7.3,9.0,6.5,1.337,2.0,68,19,3.5,-0.00006,-0.00008,27.0,32.3,8,0,0,.,6.04,0.00,0.00
15min,AgWx,beryljct,423,21DEC2020:05:45:00,15.6,12.52,12.9,12.3,12.2,12.6,12.0,81,81,80,0.214,7.4,7.5,7.2,0,0.4,84,1.7,1.5,-0.00012,-0.00018,26.9,32.2,8,0,0,.,6.04,0.00,0.00
15min,AgWx,beryljct,423,21DEC2020:06:00:00,15.1,12.52,13.8,13.6,13.0,13.6,12.3,79,81,77,0.217,7.7,8.1,7.4,0.899,1.3,151,4.6,2.7,-0.00009,-0.00012,26.7,32.2,9,0,0,.,6.04,0.00,0.00
15min,AgWx,beryljct,423,21DEC2020:06:15:00,14.9,12.53,14.1,13.6,13.0,13.6,12.3,78,80,76,0.215,7.3,8.0,6.7,3.069,2.4,177,14,3.6,-0.00005,-0.00006,26.6,32.1,8,0,0,.,6.04,0.00,0.00
15min,AgWx,beryljct,423,21DEC2020:06:30:00,14.7,12.52,13.1,12.2,12.2,13.6,11.5,77,80,75,0.210,6.4,7.6,5.7,3.924,2.4,172,13,3.9,-0.00005,-0.00006,26.5,32.1,8,0,0,.,6.04,0.00,0.00
15min,AgWx,beryljct,423,21DEC2020:06:45:00,14.5,12.52,14.4,13.4,13.1,13.9,12.2,78,80,75,0.214,7.4,8.2,6.9,1.14,1.9,170,11,4.0,-0.00007,-0.00008,26.4,32.0,8,0,0,.,6.04,0.00,0.00
15min,AgWx,beryljct,423,21DEC2020:07:00:00,14.4,12.51,13.5,13.3,13.4,14.9,12.5,78,81,75,0.223,7.7,9.8,6.3,1.71,1.5,195,9.0,2.9,-0.00008,-0.00010,26.3,32.0,8,0,0,.,6.04,0.00,0.00
15min,AgWx,beryljct,423,21DEC2020:07:15:00,14.3,12.51,14.6,14.0,13.9,15.6,12.6,82,84,79,0.235,9.3,11.3,7.7,0,1.0,227,0.5,1.8,0.00002,0.00004,26.2,31.9,8,0,0,.,6.04,0.00,0.00
15min,AgWx,beryljct,423,21DEC2020:07:30:00,14.2,12.5,14.6,14.4,14.7,15.8,14.0,83,85,81,0.239,10.5,11.9,9.6,0,0.2,227,0.0,1.0,0.00001,0.00001,26.1,31.8,8,0,0,.,6.04,0.00,0.00
15min,AgWx,beryljct,423,21DEC2020:07:45:00,14.2,12.49,14.5,14.1,14.1,15.1,13.1,84,86,82,0.238,10.1,11.5,8.7,0.68,0.4,226,0.7,1.0,0.00002,0.00002,26.0,31.8,8,3,0,.,6.04,0.00,0.00
15min,AgWx,beryljct,423,21DEC2020:08:00:00,14.2,12.67,14.9,14.3,13.9,15.0,12.9,81,85,79,0.231,9.1,11.2,7.8,0.877,0.6,228,52,1.7,0.00005,0.00006,25.9,31.8,8,13,0,.,6.04,0.00,0.00
15min,AgWx,beryljct,423,21DEC2020:08:15:00,14.6,13.22,15.7,15.0,14.0,15.0,13.2,79,81,78,0.234,8.7,9.5,7.6,1.71,0.3,12,40,1.7,0.00014,0.00016,25.8,31.7,8,53,0,.,6.04,0.00,0.00
15min,AgWx,beryljct,423,21DEC2020:08:30:00,15.9,14.93,17.7,17.1,16.5,17.3,15.0,78,80,77,0.262,10.9,12.1,9.4,0.022,1.0,173,39,2.0,0.00022,0.00026,25.7,31.7,8,86,0,.,6.04,0.00,0.00
15min,AgWx,beryljct,423,21DEC2020:08:45:00,18.4,14.89,20.1,19.9,18.7,20.9,17.2,78,80,73,0.276,13.1,14.4,12.1,0,0.0,147,0.0,0.4,0.00031,0.00033,25.6,31.6,9,121,0,.,6.04,0.00,0.00
15min,AgWx,beryljct,423,21DEC2020:09:00:00,21.5,14.91,22.9,22.5,21.5,22.5,19.8,73,76,70,0.299,14.3,15.1,13.1,1.556,0.1,145,1.1,1.6,0.00042,0.00045,25.6,31.6,9,157,0,.,6.04,0.00,0.00
15min,AgWx,beryljct,423,21DEC2020:09:15:00,24.8,14.92,25.3,24.8,23.6,24.9,22.4,68,73,65,0.298,14.5,15.2,14.0,1.798,1.5,132,19,2.4,0.00058,0.00066,25.5,31.5,9,195,0,.,6.04,0.00,0.00
15min,AgWx,beryljct,423,21DEC2020:09:30:00,27.6,14.84,28.2,26.5,25.6,26.5,24.7,63,65,60,0.295,14.7,15.3,14.3,2.368,1.9,127,18,3.3,0.00073,0.00084,25.5,31.4,9,233,0,.,6.04,0.00,0.00
15min,AgWx,beryljct,423,21DEC2020:09:45:00,30.2,14.79,29.5,29.4,27.9,29.5,26.7,58,61,55,0.304,15.2,16.0,14.6,2.477,2.4,142,14,3.5,0.00089,0.00105,25.5,31.4,9,269,0,.,6.04,0.00,0.00
15min,AgWx,beryljct,423,21DEC2020:10:00:00,32.7,14.71,31.6,31.1,30.4,31.2,29.2,55,56,54,0.317,16.1,16.7,15.1,2.258,2.1,102,15,3.0,0.00106,0.00124,25.5,31.3,8,304,0,.,6.03,0.00,0.00
15min,AgWx,beryljct,423,21DEC2020:10:15:00,35.2,14.76,33.9,32.9,32.4,33.5,31.1,52,54,51,0.326,16.9,17.7,16.2,1.315,1.6,113,23,2.7,0.00122,0.00139,25.5,31.3,8,337,0,.,6.03,0.00,0.00
15min,AgWx,beryljct,423,21DEC2020:10:30:00,37.8,14.65,34.9,34.6,33.9,34.6,33.1,50,52,49,0.334,17.4,18.1,17.0,0,0.6,15,29,2.0,0.00134,0.00147,25.6,31.2,8,365,0,.,6.03,0.00,0.00
15min,AgWx,beryljct,423,21DEC2020:10:45:00,40.5,14.2,37.2,37.0,35.7,37.0,34.6,48,50,47,0.348,17.8,18.6,17.2,3.091,1.1,355,16,4.1,0.00150,0.00168,25.8,31.2,8,392,0,.,6.03,0.00,0.00
15min,AgWx,beryljct,423,21DEC2020:11:00:00,42.6,14.27,39.4,39.2,38.0,39.2,37.0,45,46,44,0.360,18.6,19.4,18.0,4.012,3.5,350,15,5.5,0.00174,0.00209,26.0,31.1,8,417,0,.,6.03,0.00,0.00
15min,AgWx,beryljct,423,21DEC2020:11:15:00,44.1,14.14,40.8,40.7,39.9,40.7,39.1,43,45,42,0.368,19.4,19.9,19.1,3.398,3.4,351,18,5.6,0.00189,0.00226,26.2,31.1,8,439,0,.,6.03,0.00,0.00
15min,AgWx,beryljct,423,21DEC2020:11:30:00,45.3,14.14,41.6,41.3,41.2,41.7,40.6,41,43,40,0.356,19.4,20.0,19.0,1.206,3.6,348,21,5.5,0.00202,0.00243,26.5,31.0,8,458,0,.,6.03,0.00,0.00
15min,AgWx,beryljct,423,21DEC2020:11:45:00,46.5,14.1,44.0,43.0,42.3,43.0,41.4,40,41,39,0.373,19.6,20.3,19.1,3.223,2.2,334,22,4.4,0.00206,0.00239,26.9,31.0,8,474,0,.,6.02,0.00,0.00
15min,AgWx,beryljct,423,21DEC2020:12:00:00,47.6,14.05,45.0,44.9,43.8,45.0,42.8,39,40,37,0.379,20.1,21.0,19.6,3.573,2.9,350,24,4.8,0.00219,0.00259,27.3,31.0,8,485,0,.,6.02,0.00,0.00
15min,AgWx,beryljct,423,21DEC2020:12:15:00,48.7,14.05,45.9,45.9,45.2,46.4,44.3,37,38,36,0.380,20.4,21.3,19.7,1.622,2.2,18,30,4.3,0.00223,0.00259,27.7,30.9,8,493,0,.,6.02,0.00,0.00
15min,AgWx,beryljct,423,21DEC2020:12:30:00,49.9,14.02,46.6,47.3,46.6,47.6,45.8,35,36,34,0.379,20.6,21.6,20.0,3.442,2.4,9.8,31,4.9,0.00232,0.00270,28.2,30.9,8,498,0,.,6.02,0.00,0.00
15min,AgWx,beryljct,423,21DEC2020:12:45:00,51.1,13.99,48.0,48.3,48.2,49.6,46.9,34,35,33,0.390,21.0,22.3,20.2,1.052,1.3,51,38,3.9,0.00232,0.00262,28.7,30.9,8,500,0,.,6.01,0.00,0.00
15min,AgWx,beryljct,423,21DEC2020:13:00:00,52.3,13.95,49.7,49.7,49.0,49.7,48.2,33,34,33,0.402,21.4,22.0,20.9,0.438,1.5,59,60,3.4,0.00235,0.00268,29.1,30.9,8,498,0,.,6.01,0.00,0.00
15min,AgWx,beryljct,423,21DEC2020:13:15:00,53.5,13.95,51.9,52.0,50.7,52.1,49.3,32,33,31,0.414,22.1,23.1,21.3,0,1.1,133,35,3.4,0.00234,0.00263,29.7,30.9,8,492,0,.,6.01,0.00,0.00
15min,AgWx,beryljct,423,21DEC2020:13:30:00,54.7,13.91,51.6,51.4,51.6,52.3,50.9,32,33,31,0.410,22.6,23.2,22.1,0.57,2.0,85,48,3.8,0.00239,0.00278,30.2,30.9,8,482,0,.,6.01,0.00,0.00
15min,AgWx,beryljct,423,21DEC2020:13:45:00,55.4,13.87,52.3,52.5,52.0,53.4,51.3,32,32,30,0.422,22.7,23.4,22.3,1.315,1.4,113,29,3.4,0.00227,0.00259,30.8,30.9,8,468,0,.,6.00,0.00,0.00
15min,AgWx,beryljct,423,21DEC2020:14:00:00,56.3,13.96,52.3,53.1,52.8,53.4,52.2,31,32,31,0.432,23.4,24.3,22.5,3.924,1.9,28,44,5.2,0.00218,0.00254,31.4,31.0,8,441,0,.,6.01,0.00,0.00
15min,AgWx,beryljct,423,21DEC2020:14:15:00,57.1,13.85,53.6,53.5,53.2,53.9,52.7,32,33,31,0.446,24.1,24.9,23.5,4.691,3.0,48,22,5.5,0.00219,0.00268,31.9,31.0,8,421,0,.,6.00,0.00,0.00
15min,AgWx,beryljct,423,21DEC2020:14:30:00,57.7,13.82,53.1,54.0,53.8,54.2,53.3,33,34,32,0.482,25.3,26.3,24.2,3.99,3.0,24,23,5.2,0.00211,0.00260,32.5,31.1,8,403,0,.,6.00,0.00,0.00
15min,AgWx,beryljct,423,21DEC2020:14:45:00,58.3,13.82,53.4,54.0,53.8,54.3,53.3,33,36,32,0.451,25.5,26.9,24.6,3.442,2.6,30,26,4.8,0.00188,0.00231,33.0,31.1,8,372,0,.,5.99,0.00,0.00
15min,AgWx,beryljct,423,21DEC2020:15:00:00,58.9,13.79,53.5,54.0,54.0,54.5,53.7,32,33,31,0.474,25.0,26.2,24.4,3.968,3.7,44,12,6.4,0.00188,0.00242,33.5,31.2,8,347,0,.,6.00,0.00,0.00
15min,AgWx,beryljct,423,21DEC2020:15:15:00,59.2,13.81,53.7,54.2,54.0,54.3,53.5,34,34,33,0.482,26.0,26.5,25.6,3.661,2.8,39,14,5.5,0.00160,0.00203,34.0,31.3,8,316,0,.,6.00,0.00,0.00
15min,AgWx,beryljct,423,21DEC2020:15:30:00,59.4,13.77,54.3,54.5,54.2,54.6,53.9,33,34,33,0.483,25.9,26.3,25.6,3.946,2.4,63,16,4.6,0.00136,0.00174,34.4,31.4,8,282,0,.,5.99,0.00,0.00
15min,AgWx,beryljct,423,21DEC2020:15:45:00,59.5,13.78,54.6,54.2,54.3,54.7,54.1,33,34,33,0.478,26.0,26.4,25.7,2.762,2.8,93,17,4.1,0.00121,0.00162,34.8,31.5,8,248,0,.,6.00,0.00,0.00
15min,AgWx,beryljct,423,21DEC2020:16:00:00,59.1,13.83,55.9,54.1,54.1,54.4,53.8,33,34,33,0.472,25.9,26.1,25.5,0,2.1,119,11,4.1,0.00091,0.00123,35.1,31.6,8,211,0,.,6.00,0.00,0.00
15min,AgWx,beryljct,423,21DEC2020:16:15:00,58.7,13.76,53.9,53.9,54.6,55.6,53.9,33,33,31,0.474,25.7,26.1,25.5,0,0.2,149,15,1.3,0.00039,0.00045,35.5,31.8,8,174,0,.,6.00,0.00,0.00
15min,AgWx,beryljct,423,21DEC2020:16:30:00,58.5,13.79,53.2,53.2,53.5,53.9,53.0,34,35,33,0.478,25.8,26.1,25.6,1.644,0.4,272,4.5,1.9,0.00013,0.00022,35.7,31.8,8,138,0,.,5.99,0.00,0.00
15min,AgWx,beryljct,423,21DEC2020:16:45:00,57.9,13.84,51.9,52.1,52.8,53.2,52.1,36,36,35,0.473,26.3,26.5,25.7,1.951,1.3,272,7.4,2.0,0.00014,0.00023,36.0,32.0,8,102,0,.,6.00,0.00,0.00
15min,AgWx,beryljct,423,21DEC2020:17:00:00,56.0,13.18,46.3,46.1,49.6,52.0,46.1,38,41,36,0.439,25.1,26.1,23.8,5.174,3.2,256,4.2,5.3,0.00020,0.00030,36.1,32.1,8,51,0,.,6.00,0.00,0.00
15min,AgWx,beryljct,423,21DEC2020:17:15:00,51.9,13.09,42.8,43.6,46.3,48.8,43.4,42,46,39,0.427,24.6,26.1,22.8,5.13,4.4,252,3.1,5.8,0.00018,0.00026,36.2,32.2,9,10,0,.,6.01,0.00,0.00
15min,AgWx,beryljct,423,21DEC2020:17:30:00,47.8,13.04,38.1,39.6,42.2,45.4,38.1,47,53,44,0.426,23.5,25.5,21.7,3.244,4.2,244,9.3,5.8,0.00011,0.00017,36.3,32.4,9,5,0,.,6.01,0.00,0.00
15min,AgWx,beryljct,423,21DEC2020:17:45:00,44.1,13.02,45.5,42.2,39.8,44.2,37.7,52,57,46,0.475,23.7,26.9,21.8,2.368,3.5,222,9.6,5.0,0.00004,0.00007,36.3,32.5,9,1,0,.,6.02,0.00,0.00
15min,AgWx,beryljct,423,21DEC2020:18:00:00,41.5,13,38.3,39.3,40.3,44.5,38.0,51,55,45,0.417,23.7,26.3,21.4,3.398,3.5,222,7.6,5.3,0.00004,0.00008,36.2,32.7,9,0,0,.,6.01,0.00,0.00
15min,AgWx,beryljct,423,21DEC2020:18:15:00,39.6,12.97,36.4,37.6,37.9,40.9,35.5,54,59,49,0.387,22.8,24.9,21.0,2.477,2.8,210,11,3.3,-0.00001,0.00001,36.1,32.8,9,0,0,.,6.02,0.00,0.00
15min,AgWx,beryljct,423,21DEC2020:18:30:00,38.2,12.96,28.5,32.6,38.0,41.0,32.6,52,55,46,0.293,22.0,24.9,14.5,3.223,2.1,185,33,3.3,-0.00006,-0.00006,35.9,32.9,9,0,0,.,6.02,0.00,0.00
15min,AgWx,beryljct,423,21DEC2020:18:45:00,36.8,12.96,28.9,30.9,32.9,34.0,30.9,55,58,48,0.312,18.7,20.8,14.6,3.179,1.6,82,71,3.8,-0.00010,-0.00011,35.8,33.0,8,0,0,.,6.02,0.00,0.00
15min,AgWx,beryljct,423,21DEC2020:19:00:00,35.2,12.94,30.5,29.9,29.9,31.2,28.6,57,60,53,0.325,16.6,18.2,15.0,2.499,3.2,179,18,4.6,-0.00000,0.00001,35.6,33.2,9,0,0,.,6.02,0.00,0.00
15min,AgWx,beryljct,423,21DEC2020:19:15:00,33.8,12.93,28.4,30.8,31.2,35.4,29.2,60,69,55,0.380,18.8,25.0,16.2,1.513,1.9,216,10,3.7,-0.00008,-0.00009,35.4,33.3,9,0,0,.,6.02,0.00,0.00
15min,AgWx,beryljct,423,21DEC2020:19:30:00,32.9,12.92,27.9,32.6,33.3,36.2,29.8,64,71,57,0.372,22.2,25.9,18.8,1.359,0.5,213,15,2.3,-0.00020,-0.00030,35.2,33.4,9,0,0,.,6.02,0.00,0.00
15min,AgWx,beryljct,423,21DEC2020:19:45:00,32.3,12.9,28.9,29.7,30.4,32.2,26.9,66,69,59,0.359,20.4,22.6,16.7,0.723,1.7,300,80,4.0,-0.00010,-0.00012,34.9,33.5,9,0,0,.,6.02,0.00,0.00
15min,AgWx,beryljct,423,21DEC2020:20:00:00,31.6,12.9,26.4,25.5,27.2,29.5,25.1,63,68,59,0.300,16.3,18.9,14.4,1.25,1.7,11,48,3.5,-0.00009,-0.00011,34.7,33.6,9,0,0,.,6.02,0.00,0.00
15min,AgWx,beryljct,423,21DEC2020:20:15:00,30.7,12.88,28.3,26.4,26.7,28.4,25.6,63,64,59,0.309,15.7,17.7,14.2,2.587,1.7,299,81,4.6,-0.00009,-0.00010,34.5,33.6,9,0,0,.,6.02,0.00,0.00
15min,AgWx,beryljct,423,21DEC2020:20:30:00,30.0,12.88,27.6,26.4,28.7,31.9,26.4,66,73,58,0.333,18.7,22.0,15.6,1.929,2.4,237,53,3.8,-0.00006,-0.00007,34.2,33.7,9,0,0,.,6.03,0.00,0.00
15min,AgWx,beryljct,423,21DEC2020:20:45:00,29.5,12.86,26.5,27.3,27.6,28.4,26.5,68,71,64,0.331,18.4,19.5,16.4,1.841,0.7,76,48,1.9,-0.00016,-0.00023,34.0,33.8,8,0,0,.,6.02,0.00,0.00
15min,AgWx,beryljct,423,21DEC2020:21:00:00,29.0,12.85,25.9,25.2,26.9,29.4,25.0,65,68,61,0.316,16.7,19.2,15.0,0,1.2,346,4.9,3.4,-0.00012,-0.00016,33.8,33.8,9,0,0,.,6.03,0.00,0.00
15min,AgWx,beryljct,423,21DEC2020:21:15:00,28.3,12.85,26.9,27.4,25.5,27.4,24.6,68,70,67,0.340,16.5,18.3,15.4,0.307,0.2,316,19,1.5,-0.00020,-0.00030,33.6,33.9,9,0,0,.,6.02,0.00,0.00
15min,AgWx,beryljct,423,21DEC2020:21:30:00,27.7,12.85,26.9,26.0,24.8,27.2,23.9,68,71,62,0.323,15.9,17.7,13.2,1.359,1.4,177,19,2.8,-0.00011,-0.00014,33.3,33.9,9,0,0,.,6.03,0.00,0.00
15min,AgWx,beryljct,423,21DEC2020:21:45:00,27.2,12.83,25.0,24.4,24.8,26.1,24.0,67,70,64,0.309,15.5,17.3,13.6,2.543,2.4,178,4.1,3.7,-0.00006,-0.00006,33.2,33.9,8,0,0,.,6.03,0.00,0.00
15min,AgWx,beryljct,423,21DEC2020:22:00:00,26.8,12.82,23.1,22.5,24.5,26.3,22.2,68,70,66,0.281,15.5,17.9,12.7,2.916,4.1,168,7.9,7.0,-0.00001,0.00001,32.9,33.9,9,0,0,.,6.03,0.00,0.00
15min,AgWx,beryljct,423,21DEC2020:22:15:00,26.3,12.81,26.2,25.8,23.0,25.8,21.9,70,72,67,0.339,14.6,17.9,13.0,3.705,4.4,176,6.9,7.0,-0.00000,0.00001,32.7,34.0,8,0,0,.,6.03,0.00,0.00
15min,AgWx,beryljct,423,21DEC2020:22:30:00,26.3,12.82,29.4,29.3,27.7,29.3,25.6,69,71,66,0.371,18.7,20.0,16.9,5.744,5.6,177,5.9,7.2,0.00003,0.00005,32.5,34.0,10,0,0,.,6.03,0.00,0.00
15min,AgWx,beryljct,423,21DEC2020:22:45:00,27.1,12.81,25.8,25.7,30.0,31.6,25.7,67,69,61,0.326,20.2,21.9,14.9,0,4.5,178,33,7.0,0.00001,0.00003,32.3,34.0,9,0,0,.,6.03,0.00,0.00
15min,AgWx,beryljct,423,21DEC2020:23:00:00,27.3,12.8,25.4,26.0,26.4,27.3,25.2,71,74,69,0.329,18.4,19.9,17.0,1.074,1.1,197,31,4.3,-0.00013,-0.00018,32.1,34.0,9,0,0,.,6.03,0.00,0.00
15min,AgWx,beryljct,423,21DEC2020:23:15:00,26.9,12.8,25.2,24.2,24.5,26.0,23.1,72,76,69,0.337,16.8,17.8,15.1,0,1.0,215,20,2.1,-0.00013,-0.00018,31.9,34.0,9,0,0,.,6.04,0.00,0.00
15min,AgWx,beryljct,423,21DEC2020:23:30:00,26.3,12.79,25.3,24.3,24.8,25.5,24.1,74,76,71,0.324,17.6,18.8,16.1,1.206,1.5,312,2.4,3.3,-0.00011,-0.00014,31.8,34.0,8,0,0,.,6.04,0.00,0.00
15min,AgWx,beryljct,423,21DEC2020:23:45:00,25.7,12.78,24.6,23.8,24.2,25.1,23.3,74,75,72,0.325,16.9,18.1,16.1,1.337,1.5,315,2.2,2.2,-0.00011,-0.00014,31.6,34.0,8,0,0,.,6.03,0.00,0.00
15min,AgWx,bigpiney,439,21DEC2020:00:00:00,31.3,12.63,28.6,28.7,29.9,31.9,28.7,81,83,76,0.441,24.8,25.5,24.1,1.425,3.1,126,31,6.2,-0.00005,-0.00006,30.4,32.4,34,0,0,0.0,0.01,0.00,0.00
15min,AgWx,bigpiney,439,21DEC2020:00:15:00,30.9,12.62,28.4,28.4,28.1,28.9,27.4,84,86,83,0.435,23.9,24.7,23.2,6.555,4.4,99,22,8.1,-0.00004,-0.00003,30.4,32.4,34,0,0,0.0,0.01,0.00,0.00
15min,AgWx,bigpiney,439,21DEC2020:00:30:00,30.4,12.61,26.9,26.8,27.9,29.0,26.8,83,86,82,0.417,23.5,24.8,22.4,3.99,4.3,119,53,7.1,-0.00003,-0.00003,30.4,32.4,34,0,0,0.0,0.01,0.00,0.00
15min,AgWx,bigpiney,439,21DEC2020:00:45:00,29.7,12.61,27.8,27.1,27.2,27.9,26.5,85,87,84,0.435,23.3,24.0,22.8,1.732,2.3,238,47,4.2,-0.00008,-0.00010,30.4,32.4,34,0,0,0.0,0.01,0.00,0.00
15min,AgWx,bigpiney,439,21DEC2020:01:00:00,29.1,12.6,26.9,27.5,27.1,28.4,25.3,85,88,82,0.427,23.2,24.5,20.9,6.708,2.1,150,71,6.9,-0.00009,-0.00011,30.5,32.4,34,0,0,0.0,0.01,0.00,0.00
15min,AgWx,bigpiney,439,21DEC2020:01:15:00,28.4,12.59,26.0,25.7,26.1,27.3,25.7,85,86,83,0.398,22.2,23.0,21.7,1.929,3.0,64,36,7.8,-0.00006,-0.00007,30.5,32.4,34,0,0,0.0,0.01,0.00,0.00
15min,AgWx,bigpiney,439,21DEC2020:01:30:00,27.9,12.58,26.8,26.0,26.7,28.5,25.6,84,87,80,0.405,22.6,24.0,20.6,3.135,1.9,21,87,4.7,-0.00009,-0.00011,30.5,32.4,34,0,0,0.0,0.01,0.00,0.00
15min,AgWx,bigpiney,439,21DEC2020:01:45:00,27.6,12.57,26.4,26.6,27.1,27.7,26.0,84,86,83,0.411,23.0,23.8,22.2,4.932,2.0,177,76,4.9,-0.00009,-0.00011,30.5,32.4,34,0,0,0.0,0.01,0.00,0.00
15min,AgWx,bigpiney,439,21DEC2020:02:00:00,27.5,12.55,28.3,28.2,27.7,28.5,26.4,84,86,82,0.427,23.3,23.8,22.3,1.403,1.5,115,58,4.6,-0.00011,-0.00014,30.5,32.4,34,0,0,0.0,0.01,0.00,0.00
15min,AgWx,bigpiney,439,21DEC2020:02:15:00,27.5,12.55,24.8,25.0,26.1,28.2,24.8,84,87,81,0.399,22.0,23.4,20.5,0.702,2.5,81,80,4.5,-0.00007,-0.00009,30.5,32.4,34,0,0,0.0,0.01,0.00,0.00
15min,AgWx,bigpiney,439,21DEC2020:02:30:00,27.1,12.55,28.6,27.7,25.5,27.7,24.4,87,90,85,0.437,22.3,23.9,21.2,5.196,2.7,167,61,6.3,-0.00008,-0.00009,30.5,32.4,34,0,0,0.0,0.01,0.00,0.00
15min,AgWx,bigpiney,439,21DEC2020:02:45:00,27.0,12.54,27.7,26.6,26.9,27.9,25.9,85,87,82,0.421,22.9,23.9,21.9,0.022,2.7,239,86,5.2,-0.00007,-0.00008,30.5,32.4,34,0,0,0.0,0.01,0.00,0.00
15min,AgWx,bigpiney,439,21DEC2020:03:00:00,26.9,12.53,26.6,26.0,25.9,27.1,24.7,86,89,84,0.415,22.4,23.5,21.1,2.521,2.8,231,60,4.8,-0.00007,-0.00008,30.5,32.4,34,0,0,0.0,0.01,0.00,0.00
15min,AgWx,bigpiney,439,21DEC2020:03:15:00,26.8,12.52,28.8,27.8,27.2,28.0,26.0,85,88,82,0.439,23.3,24.1,22.3,1.469,1.4,237,54,5.0,-0.00011,-0.00015,30.5,32.4,34,0,0,0.0,0.01,0.00,0.00
15min,AgWx,bigpiney,439,21DEC2020:03:30:00,26.7,12.51,25.5,24.6,26.3,28.7,24.4,84,87,79,0.393,22.1,24.5,20.2,3.025,3.1,204,20,4.5,-0.00006,-0.00007,30.5,32.4,34,0,0,0.0,0.01,0.00,0.00
15min,AgWx,bigpiney,439,21DEC2020:03:45:00,26.4,12.51,26.1,25.9,25.2,26.4,24.2,87,89,85,0.408,21.9,23.3,20.5,4.647,4.4,225,11,6.0,-0.00004,-0.00004,30.5,32.4,34,0,0,0.0,0.01,0.00,0.00
15min,AgWx,bigpiney,439,21DEC2020:04:00:00,26.1,12.51,24.6,24.5,26.2,28.4,24.5,85,89,82,0.388,22.3,24.6,20.9,4.954,4.7,225,14,6.1,-0.00003,-0.00003,30.5,32.4,34,0,0,0.0,0.01,0.00,0.00
15min,AgWx,bigpiney,439,21DEC2020:04:15:00,25.8,12.5,26.0,26.2,25.7,26.4,24.5,87,88,86,0.416,22.3,23.1,21.1,2.455,4.0,226,21,5.3,-0.00005,-0.00005,30.5,32.4,34,0,0,0.0,0.01,0.00,0.00
15min,AgWx,bigpiney,439,21DEC2020:04:30:00,25.9,12.5,27.0,26.7,26.6,27.0,26.0,86,87,86,0.426,23.1,23.5,22.4,3.529,4.0,226,11,6.2,-0.00005,-0.00005,30.5,32.4,34,0,0,0.0,0.01,0.00,0.00
15min,AgWx,bigpiney,439,21DEC2020:04:45:00,26.3,12.49,27.6,27.4,27.1,28.0,26.6,87,88,85,0.431,23.6,24.4,23.1,3.486,5.2,208,24,6.8,-0.00003,-0.00003,30.4,32.4,34,0,0,0.0,0.01,0.00,0.00
15min,AgWx,bigpiney,439,21DEC2020:05:00:00,26.6,12.48,28.2,27.9,27.3,28.5,26.7,87,89,85,0.445,23.9,25.6,23.2,1.732,1.6,248,43,4.6,-0.00011,-0.00014,30.5,32.4,34,0,0,0.0,0.01,0.00,0.00
15min,AgWx,bigpiney,439,21DEC2020:05:15:00,27.0,12.48,30.9,30.1,28.2,30.1,27.5,86,87,84,0.472,24.5,25.7,23.9,0.614,2.1,248,26,3.5,-0.00009,-0.00011,30.4,32.5,34,0,0,0.0,0.01,0.00,0.00
15min,AgWx,bigpiney,439,21DEC2020:05:30:00,27.5,12.48,30.4,29.4,28.4,30.1,27.3,85,86,80,0.460,24.3,25.6,23.2,2.872,1.8,299,41,3.6,-0.00010,-0.00013,30.4,32.4,34,0,0,0.0,0.01,0.00,0.00
15min,AgWx,bigpiney,439,21DEC2020:05:45:00,27.9,12.47,29.3,28.4,29.3,30.1,28.4,83,84,81,0.446,24.9,25.6,24.2,1.337,1.7,241,79,3.1,-0.00010,-0.00013,30.4,32.4,34,0,0,0.0,0.01,0.00,0.00
15min,AgWx,bigpiney,439,21DEC2020:06:00:00,28.2,12.47,27.8,27.6,28.6,30.0,27.3,84,86,82,0.435,24.3,25.6,23.1,0,1.2,31,66,4.9,-0.00012,-0.00017,30.4,32.3,34,0,0,0.0,0.01,0.00,0.00
15min,AgWx,bigpiney,439,21DEC2020:06:15:00,28.2,12.46,28.9,28.0,27.2,28.0,26.6,87,88,85,0.455,23.7,24.9,23.0,2.148,1.4,186,24,3.5,-0.00011,-0.00015,30.4,32.4,34,0,0,0.0,0.01,0.00,0.00
15min,AgWx,bigpiney,439,21DEC2020:06:30:00,27.8,12.46,26.7,24.6,26.3,28.9,23.6,85,90,82,0.404,22.5,25.2,19.9,4.077,3.6,211,38,6.0,-0.00005,-0.00006,30.4,32.4,34,0,0,0.0,0.01,0.00,0.00
15min,AgWx,bigpiney,439,21DEC2020:06:45:00,26.9,12.46,25.1,24.6,24.1,25.2,22.2,88,92,84,0.395,21.1,23.0,18.3,2.85,3.8,239,50,5.4,-0.00005,-0.00006,30.4,32.4,34,0,0,0.0,0.01,0.00,0.00
15min,AgWx,bigpiney,439,21DEC2020:07:00:00,26.0,12.46,23.8,22.3,23.3,24.7,21.9,88,90,86,0.368,20.3,21.7,18.4,3.88,2.9,290,37,5.0,-0.00007,-0.00008,30.4,32.4,34,0,0,0.0,0.01,0.00,0.00
15min,AgWx,bigpiney,439,21DEC2020:07:15:00,25.1,12.46,23.3,22.7,23.5,26.2,22.0,90,93,86,0.374,21.0,24.4,18.9,5.349,4.3,332,32,6.5,-0.00005,-0.00005,30.4,32.4,34,0,0,0.0,0.01,0.00,0.00
15min,AgWx,bigpiney,439,21DEC2020:07:30:00,24.5,12.46,25.7,24.3,23.3,24.7,21.7,90,92,88,0.397,20.8,22.6,18.7,3.946,4.5,303,25,8.3,-0.00005,-0.00005,30.4,32.4,34,0,0,0.0,0.01,0.00,0.00
15min,AgWx,bigpiney,439,21DEC2020:07:45:00,24.4,12.48,25.9,26.1,26.0,27.1,24.4,89,90,86,0.415,23.1,24.3,21.7,3.376,3.0,269,31,7.1,-0.00007,-0.00008,30.4,32.4,34,2,0,0.0,0.01,0.00,0.00
15min,AgWx,bigpiney,439,21DEC2020:08:00:00,24.8,12.56,24.4,23.8,24.8,26.0,23.7,88,89,86,0.388,21.6,22.6,20.5,5.459,3.7,232,12,6.7,-0.00005,-0.00005,30.4,32.4,34,5,0,0.0,0.01,0.00,0.00
15min,AgWx,bigpiney,439,21DEC2020:08:15:00,25.3,12.69,25.6,25.1,24.7,25.1,23.9,89,90,89,0.411,22.0,22.4,21.1,3.749,3.2,225,14,5.5,-0.00010,-0.00008,30.4,32.3,34,15,0,0.0,0.01,0.00,0.00